Wetbulb
47.97 40.55 36.75 38.56 41.05 42.23 40.35 38.19 37.30 41.24 46.61 43.50 42.42 41.82 44.45 46.33 46.41 45.54 45.35 45.89 47.48 48.92 52.24 54.15 55.79 56.81 64.60 64.84 63.66 64.52 63.54 63.96 63.17 63.77 65.00 64.50 64.07 64.66 64.13 60.75 59.68 57.43 54.17 52.38
40.49 37.40 42.42 44.59 44.18 42.52 40.48 38.18 37.43 42.98 46.96 43.31 41.95 41.77 44.45 45.58 45.27 45.58 45.73 45.79 47.77 49.30 50.14 51.71 53.75 55.80 54.58 62.63 63.73 64.63 63.45 63.93 63.07 62.32 61.62 64.25 64.04 63.18 63.06 59.67 58.02 56.53 52.59 51.68
36.83 42.06 46.44 44.53 41.85 40.57 38.96 37.75 37.82 40.06 44.80 44.68 41.85 38.23 40.97 44.10 45.63 46.88 46.73 47.69 48.68 48.37 48.78 50.42 52.81 54.01 56.11 60.08 62.02 62.31 61.78 62.27 62.52 61.59 62.14 63.08 61.92 61.48 59.50 55.84 55.26 54.25 51.62 52.50
40.37 44.75 43.96 41.60 41.16 40.86 35.82 42.86 42.82 42.53 39.83 33.24 40.14 29.16 37.60 41.27 42.45 43.81 44.93 46.99 48.70 48.47 49.68 50.64 52.32 53.40 54.47 57.72 60.79 60.87 60.66 60.95 60.93 61.72 62.47 62.90 61.30 59.24 57.77 55.27 53.97 53.66 51.41 50.62
38.30 40.58 40.19 40.20 40.85 42.47 39.34 43.91 42.38 42.29 39.09 36.39 36.95 31.06 35.14 40.11 39.43 41.83 45.41 47.66 47.97 49.22 50.15 50.57 52.00 53.98 55.86 57.96 59.64 60.57 59.89 60.53 60.31 59.21 58.00 61.52 59.06 56.55 55.63 53.65 52.58 52.42 52.43 52.45
41.02 44.56 43.20 41.27 43.43 43.96 45.13 42.88 42.96 41.47 37.94 31.05 35.11 33.53 31.90 36.53 39.16 41.89 46.56 46.86 47.56 49.34 51.03 52.44 54.33 56.35 56.91 61.27 62.23 61.39 60.62 58.51 58.48 58.81 58.68 58.22 57.22 56.56 55.63 54.72 53.22 53.31 53.13 52.53
39.99 40.86 43.65 45.10 39.99 43.75 41.02 35.87 25.15 26.91 26.32 27.07 38.29 33.40 34.70 40.65 43.23 44.87 45.92 46.36 48.07 49.28 49.85 51.88 55.04 56.58 59.60 58.18 59.63 60.47 60.87 59.50 58.21 58.64 57.44 59.13 59.42 58.10 56.75 55.59 54.88 52.32 50.99 51.82
33.22 32.27 40.08 41.89 40.86 37.48 37.75 36.84 25.81 16.40 21.88 26.45 38.03 28.75 36.15 43.65 46.50 46.69 47.71 47.55 48.14 48.42 49.46 51.21 54.56 57.35 58.01 59.89 59.82 59.39 58.50 57.62 57.79 58.28 57.40 56.72 55.51 54.93 54.73 54.29 53.91 53.17 51.52 51.81
33.57 34.66 41.36 41.75 42.47 41.25 37.50 33.31 39.86 31.93 33.34 28.33 32.15 36.78 41.89 43.22 44.02 44.70 44.64 46.80 46.84 47.48 48.77 49.97 51.52 54.72 58.28 57.86 58.23 58.35 57.69 56.97 56.48 56.13 55.76 55.19 54.87 54.53 53.84 53.80 53.88 53.63 54.16 52.28
37.14 31.17 39.51 41.95 42.25 43.49 38.94 41.77 32.95 33.50 20.47 22.75 29.15 29.00 30.62 38.37 40.95 43.56 42.46 44.74 46.78 47.53 48.43 49.08 49.83 51.81 53.96 54.72 55.14 55.99 56.20 55.01 54.81 54.72 55.29 55.42 55.43 55.34 54.23 54.79 54.48 54.47 54.83 54.38
37.88 34.62 35.83 38.87 37.18 36.45 37.68 35.83 35.92 34.81 33.18 26.19 24.83 28.24 37.09 39.05 42.35 41.87 42.59 44.56 46.00 47.05 47.30 48.16 48.86 50.61 51.57 52.35 51.93 51.79 52.56 52.23 51.24 50.97 51.31 51.38 51.64 52.02 52.48 52.69 52.91 52.47 51.96 51.86
38.96 35.21 31.37 34.22 39.41 41.07 38.24 35.09 34.14 28.18 28.33 30.49 29.05 30.06 42.36 41.84 42.70 43.36 43.46 43.60 45.93 47.60 46.93 46.82 46.84 48.25 48.07 49.40 49.00 47.90 47.27 46.82 48.25 48.36 47.27 46.86 47.60 48.39 49.06 49.17 50.93 51.23 50.37 50.24
39.64 34.28 28.97 30.73 35.40 37.79 34.92 37.92 36.34 34.30 32.13 30.10 24.51 28.52 41.58 42.55 42.20 42.97 42.88 42.84 44.50 46.14 46.10 45.32 45.04 46.04 46.35 45.65 45.58 45.68 45.64 45.44 45.87 45.98 45.40 44.91 44.22 42.83 43.39 44.55 48.89 50.11 50.12 50.08
43.87 35.53 32.99 29.55 32.73 35.65 32.96 36.27 35.98 33.13 26.51 28.86 29.28 32.38 37.97 41.15 41.86 42.32 41.80 42.44 44.78 44.08 44.33 44.34 43.75 44.41 46.29 46.64 45.47 44.77 44.64 44.83 44.63 44.36 43.44 41.88 40.53 40.52 41.83 42.80 42.12 41.89 41.81 41.23
38.54 32.96 35.45 36.68 37.83 36.84 35.67 36.10 36.26 32.82 32.13 28.35 32.87 33.78 37.47 41.15 42.27 42.61 42.76 43.08 43.79 43.99 43.93 43.76 42.83 42.99 43.07 40.13 39.95 40.33 40.29 40.43 41.25 41.01 40.50 39.61 40.15 40.39 40.94 40.44 40.40 40.37 40.24 39.65
37.72 32.32 34.07 33.25 37.48 36.92 34.99 36.87 36.72 35.81 35.13 33.34 33.84 34.76 39.74 42.23 43.37 42.82 42.82 43.49 42.72 42.58 42.52 41.97 41.27 40.30 39.34 38.65 38.83 39.76 39.50 39.86 40.15 39.73 39.27 39.95 39.70 39.42 38.85 38.93 38.49 38.24 37.88 37.77
35.15 33.87 32.29 28.94 35.38 35.35 31.95 35.70 36.74 37.03 37.23 35.84 32.26 37.07 40.95 42.62 44.43 43.73 43.70 44.78 43.41 42.87 42.68 41.99 41.36 40.59 39.73 39.51 39.78 38.89 39.14 39.45 38.88 38.98 39.14 39.26 39.00 38.49 38.12 38.01 37.58 36.69 35.61 35.84
35.66 34.63 33.09 28.04 31.87 25.80 36.71 39.65 40.59 38.76 39.90 39.69 39.64 40.90 42.02 43.00 44.16 44.83 45.34 44.92 43.86 44.14 43.54 42.57 41.85 40.76 40.29 40.22 40.01 39.47 39.45 38.99 38.72 38.16 38.23 38.12 37.82 37.39 37.27 36.64 35.90 35.45 35.25 34.80
37.38 35.31 29.68 26.69 27.25 34.26 36.49 39.16 38.28 37.50 37.41 41.50 39.75 41.55 42.43 43.30 42.11 41.32 46.67 47.05 45.63 44.38 43.74 42.16 42.21 41.10 39.81 39.93 39.83 39.51 38.71 38.51 38.16 37.31 36.98 37.33 37.76 37.35 37.00 35.72 34.95 34.72 34.01 33.11
36.84 35.01 31.45 28.32 25.60 26.48 36.74 40.36 42.56 40.39 31.56 41.32 41.84 40.80 41.63 41.65 35.51 37.99 44.70 47.05 45.50 45.55 44.19 42.46 41.40 40.65 39.83 39.44 39.60 39.00 37.92 37.55 36.82 36.72 36.94 37.56 37.99 37.37 36.08 35.39 34.64 33.47 32.97 33.49
29.60 29.12 27.00 26.92 26.22 33.29 41.05 41.23 41.63 30.86 34.17 41.07 42.18 41.62 41.72 41.26 42.27 42.22 44.86 45.73 47.00 45.93 43.76 43.11 41.91 41.08 39.80 39.58 39.58 38.42 37.24 36.70 37.57 38.18 38.06 37.60 37.11 36.42 35.24 34.00 32.41 31.52 31.52 31.36
29.33 26.48 26.12 28.46 25.97 27.27 40.85 39.24 36.14 38.83 40.07 41.73 41.55 41.84 43.17 42.75 44.06 44.21 45.39 45.31 45.31 44.10 43.77 43.31 41.36 40.23 39.34 39.80 39.81 37.77 36.68 37.68 38.29 37.99 37.29 35.94 35.49 37.84 35.77 32.27 30.73 30.88 30.65 29.39
31.88 34.93 31.06 32.80 33.56 40.32 42.30 40.27 41.59 42.98 42.15 41.88 42.20 42.89 44.48 43.56 43.31 44.26 43.76 44.59 45.20 44.37 44.02 43.50 41.92 39.95 39.03 39.53 39.97 37.19 37.16 38.24 37.71 36.30 34.78 34.47 34.02 32.95 32.02 30.39 29.80 30.31 30.03 29.53
36.32 38.97 36.40 36.20 39.62 40.29 41.47 41.83 42.47 44.43 43.17 43.77 44.11 44.25 44.32 43.49 43.39 43.84 43.95 43.85 44.34 44.10 43.58 43.31 41.70 40.43 38.89 39.13 39.33 39.66 38.36 38.77 37.32 34.75 33.53 32.59 31.34 30.33 30.54 31.94 31.34 29.89 29.13 28.64
37.08 39.16 37.03 35.86 38.83 40.29 41.89 42.04 43.42 44.18 45.02 44.79 45.27 45.18 44.63 43.89 43.53 43.70 43.54 43.71 44.97 44.14 43.78 43.65 42.74 41.25 40.53 39.73 39.30 40.13 39.41 38.97 36.85 34.92 33.59 32.12 32.05 29.56 29.30 30.58 29.98 30.36 28.91 29.74
37.66 36.84 37.69 36.96 40.67 41.02 42.17 45.30 44.61 44.03 44.23 44.96 45.37 44.98 45.15 44.77 43.96 43.87 43.52 44.64 44.45 43.83 43.42 43.06 42.62 41.24 40.68 40.32 39.57 39.97 39.83 39.09 37.09 35.15 33.77 31.91 29.86 29.12 29.46 29.28 28.19 36.71 35.79 36.99
MSLP
1011.82 1012.49 1012.69 1012.74 1012.84 1012.96 1013.15 1013.11 1012.94 1012.44 1011.88 1011.71 1011.91 1012.95 1013.27 1013.38 1013.47 1013.90 1013.99 1013.77 1013.07 1012.45 1011.43 1010.89 1010.25 1009.63 1008.43 1008.39 1009.25 1010.08 1010.64 1011.55 1011.76 1012.57 1012.91 1013.04 1013.50 1014.13 1014.47 1014.67 1015.44 1015.71 1016.25 1016.89
1012.09 1012.17 1012.05 1012.12 1012.27 1012.67 1012.82 1013.07 1013.05 1012.41 1011.98 1012.05 1012.35 1013.21 1013.52 1013.72 1014.18 1014.39 1014.42 1014.16 1013.61 1012.65 1011.84 1011.31 1010.98 1010.26 1010.02 1009.00 1009.12 1009.76 1010.61 1011.18 1012.19 1012.48 1013.87 1013.84 1013.56 1014.54 1014.93 1015.03 1015.42 1015.80 1016.46 1016.91
1011.98 1011.96 1011.72 1011.90 1012.24 1012.57 1012.80 1012.98 1013.03 1013.07 1012.41 1011.87 1012.51 1013.67 1014.00 1014.17 1014.08 1014.47 1014.47 1014.24 1013.85 1013.33 1012.49 1012.00 1011.43 1010.81 1010.29 1009.79 1009.51 1010.05 1010.94 1011.62 1012.24 1012.80 1013.55 1013.04 1014.21 1014.85 1015.59 1015.95 1016.60 1016.62 1016.81 1017.32
1011.77 1011.64 1011.78 1011.97 1012.33 1012.55 1012.76 1012.55 1012.77 1013.09 1013.29 1013.29 1013.05 1014.30 1014.52 1014.46 1014.37 1014.64 1014.44 1014.25 1013.99 1013.57 1012.75 1012.26 1011.81 1011.02 1010.42 1010.62 1009.91 1010.23 1011.22 1012.04 1012.96 1013.87 1014.21 1014.16 1015.05 1015.04 1015.93 1016.48 1016.81 1017.33 1017.61 1018.01
1011.94 1011.83 1012.01 1012.13 1012.28 1012.46 1012.67 1012.43 1012.77 1013.30 1013.86 1014.22 1014.07 1014.88 1015.05 1015.01 1014.76 1014.73 1014.88 1014.72 1014.51 1013.96 1013.11 1012.21 1011.79 1011.32 1010.87 1010.61 1010.34 1010.89 1011.35 1012.39 1013.32 1013.58 1013.93 1014.05 1015.43 1015.72 1016.59 1016.89 1017.29 1018.03 1018.68 1018.69
1011.95 1011.93 1012.05 1012.09 1012.03 1012.09 1012.31 1012.73 1013.05 1013.82 1014.82 1015.45 1015.11 1015.30 1015.47 1015.58 1015.61 1015.47 1015.27 1015.15 1014.95 1014.24 1013.45 1012.46 1011.63 1010.95 1010.75 1010.63 1010.93 1011.31 1011.74 1012.65 1013.20 1013.75 1014.31 1014.15 1016.06 1016.00 1017.04 1017.41 1017.76 1018.81 1018.90 1019.41
1011.97 1012.13 1012.04 1011.99 1012.19 1012.21 1012.89 1013.90 1015.23 1016.13 1016.55 1016.42 1015.64 1015.65 1015.64 1015.47 1015.69 1016.12 1015.95 1015.67 1015.35 1014.88 1013.99 1012.95 1011.64 1010.82 1011.26 1011.35 1011.60 1011.81 1012.23 1013.03 1013.50 1014.06 1014.36 1014.49 1014.47 1015.79 1017.24 1017.97 1018.79 1019.65 1020.06 1020.23
1012.52 1012.48 1012.15 1011.97 1012.25 1012.77 1013.37 1014.57 1016.39 1017.71 1018.14 1017.53 1015.97 1016.02 1015.69 1015.46 1015.97 1016.33 1016.24 1016.21 1015.91 1015.49 1014.79 1013.58 1012.97 1012.41 1012.24 1012.14 1012.20 1012.53 1013.18 1013.63 1013.88 1014.00 1014.54 1014.92 1015.17 1016.45 1017.27 1017.57 1018.37 1019.58 1019.97 1020.16
1012.76 1012.57 1012.24 1012.08 1012.16 1012.84 1013.37 1014.54 1015.74 1017.32 1018.00 1017.94 1016.82 1016.11 1015.71 1015.79 1016.14 1016.20 1016.55 1016.44 1016.49 1016.28 1015.80 1015.16 1014.31 1013.61 1013.21 1013.21 1013.31 1013.49 1013.76 1014.32 1014.66 1015.22 1015.47 1016.06 1016.56 1017.28 1017.85 1018.51 1018.67 1019.01 1019.82 1019.87
1012.98 1013.01 1012.40 1012.40 1012.50 1012.61 1013.06 1014.16 1015.49 1016.87 1018.20 1018.12 1016.96 1016.42 1015.98 1016.08 1016.28 1016.41 1016.92 1017.00 1017.00 1016.84 1016.47 1016.07 1015.57 1014.99 1014.59 1014.53 1014.67 1014.61 1014.85 1015.25 1015.65 1015.84 1016.26 1016.85 1017.50 1018.29 1018.73 1018.85 1019.28 1019.47 1019.43 1020.08
1012.97 1013.25 1013.05 1012.72 1012.73 1012.66 1013.26 1013.78 1014.77 1015.86 1017.01 1017.87 1017.38 1016.43 1015.68 1016.09 1016.35 1016.36 1017.21 1017.37 1017.45 1017.33 1017.20 1017.00 1016.62 1016.30 1015.87 1015.82 1015.83 1016.03 1016.19 1016.47 1016.76 1016.99 1017.45 1017.68 1018.18 1018.82 1019.15 1019.17 1019.44 1019.76 1019.90 1020.73
1013.28 1013.65 1013.72 1013.27 1012.81 1012.59 1012.82 1013.41 1014.38 1015.85 1016.76 1016.96 1016.87 1016.05 1015.55 1015.77 1016.33 1016.25 1017.12 1017.28 1017.58 1017.57 1017.72 1017.69 1017.48 1017.18 1016.99 1016.99 1017.07 1017.16 1017.34 1017.42 1017.81 1017.98 1018.23 1018.64 1018.97 1019.53 1019.62 1020.06 1020.31 1020.33 1020.83 1021.16
1013.50 1013.97 1014.09 1013.82 1013.65 1012.96 1013.01 1013.29 1013.85 1014.87 1015.80 1016.27 1016.52 1015.68 1015.52 1015.61 1016.24 1016.50 1016.90 1017.24 1017.39 1017.51 1017.74 1017.88 1017.76 1017.72 1018.00 1018.01 1017.98 1018.18 1018.30 1018.44 1018.39 1018.52 1018.82 1019.26 1019.65 1020.16 1020.04 1020.76 1021.12 1021.22 1021.49 1021.72
1013.65 1014.17 1013.90 1013.53 1013.17 1012.89 1012.96 1013.07 1013.52 1014.37 1015.60 1015.38 1015.08 1014.99 1015.42 1015.63 1016.06 1016.44 1016.74 1016.99 1017.16 1017.38 1017.82 1018.10 1018.13 1018.33 1018.50 1018.72 1018.87 1018.96 1018.89 1019.03 1019.22 1019.37 1019.82 1020.37 1020.70 1020.96 1021.10 1021.49 1021.86 1021.87 1021.78 1022.19
1014.26 1014.57 1014.08 1013.39 1012.99 1012.69 1012.61 1012.74 1013.11 1013.79 1014.08 1014.62 1014.25 1014.14 1014.25 1014.71 1015.21 1015.71 1016.35 1016.76 1016.91 1017.12 1017.49 1018.06 1018.39 1018.50 1018.95 1019.30 1019.41 1019.47 1019.59 1019.87 1019.90 1020.33 1020.94 1021.53 1021.35 1021.58 1022.01 1022.25 1022.05 1021.83 1022.28 1022.72
1014.42 1014.58 1014.20 1013.58 1012.58 1012.23 1012.19 1011.93 1012.23 1012.63 1013.02 1013.31 1013.33 1013.26 1012.88 1013.62 1014.55 1015.39 1015.91 1016.29 1016.60 1016.89 1017.36 1017.75 1018.23 1018.82 1019.25 1019.64 1019.90 1020.03 1020.29 1020.49 1020.46 1020.86 1021.34 1021.62 1021.92 1022.19 1022.61 1022.49 1022.36 1022.69 1023.12 1023.56
1014.46 1014.74 1014.72 1014.23 1013.05 1012.45 1011.99 1010.78 1010.98 1011.50 1011.69 1012.13 1012.57 1012.47 1012.88 1013.76 1014.02 1014.46 1015.24 1015.61 1016.05 1016.46 1016.89 1017.54 1018.05 1018.37 1018.81 1019.37 1019.70 1020.22 1020.55 1020.82 1021.24 1021.59 1021.98 1022.31 1022.49 1022.62 1022.73 1022.89 1023.32 1023.68 1024.05 1024.29
1013.95 1014.68 1014.89 1014.86 1013.83 1012.83 1010.57 1009.79 1009.78 1010.29 1010.60 1010.96 1011.29 1011.72 1012.18 1012.61 1013.06 1013.49 1014.04 1014.73 1015.49 1016.02 1016.52 1017.05 1017.56 1018.18 1018.67 1018.99 1019.43 1019.88 1020.43 1021.03 1021.52 1021.96 1022.35 1022.53 1022.74 1023.06 1023.29 1023.60 1024.02 1024.25 1024.68 1025.05
1013.64 1014.55 1015.26 1015.28 1014.38 1012.43 1010.76 1009.85 1009.77 1009.73 1009.71 1009.81 1010.62 1011.36 1011.84 1012.37 1012.94 1013.40 1013.26 1013.66 1014.45 1015.21 1015.93 1016.59 1017.14 1017.73 1018.32 1018.74 1019.27 1019.86 1020.46 1020.92 1021.37 1021.88 1022.27 1022.58 1022.89 1023.49 1023.97 1024.46 1024.59 1024.89 1025.19 1025.35
1014.26 1014.65 1015.46 1015.63 1014.75 1012.80 1010.10 1009.38 1009.09 1009.59 1009.57 1008.76 1009.54 1010.66 1011.34 1012.13 1013.03 1012.58 1012.69 1013.04 1013.82 1014.50 1015.34 1016.22 1016.93 1017.50 1018.13 1018.66 1019.05 1019.63 1020.37 1020.92 1021.47 1021.81 1022.25 1022.58 1023.06 1023.64 1024.22 1024.45 1024.69 1025.00 1025.14 1025.25
1014.78 1015.38 1015.53 1015.29 1014.27 1011.80 1009.55 1009.24 1009.36 1009.87 1009.21 1008.27 1008.87 1009.88 1010.81 1011.40 1011.20 1011.44 1012.02 1012.62 1013.00 1013.82 1014.71 1015.66 1016.46 1017.19 1017.81 1018.38 1018.91 1019.70 1020.26 1020.90 1021.29 1021.67 1022.22 1022.76 1023.16 1023.60 1024.05 1024.42 1024.78 1025.00 1025.26 1025.52
1012.80 1014.15 1014.73 1014.70 1013.61 1011.24 1008.58 1009.29 1008.99 1007.93 1007.92 1008.14 1008.59 1009.24 1010.05 1010.28 1010.84 1011.08 1011.38 1012.19 1012.90 1013.53 1014.36 1015.12 1016.15 1016.99 1017.46 1018.03 1018.70 1019.64 1020.32 1020.65 1021.02 1021.62 1022.34 1022.92 1023.30 1023.65 1024.10 1024.49 1024.95 1025.27 1025.48 1026.00
1010.89 1009.94 1010.85 1010.77 1009.40 1007.90 1007.22 1006.82 1006.91 1007.14 1007.46 1007.95 1008.27 1008.80 1009.44 1010.22 1010.77 1011.11 1011.50 1011.95 1012.56 1013.11 1013.89 1014.64 1015.50 1016.58 1017.21 1017.68 1018.28 1019.41 1020.02 1020.44 1020.95 1021.62 1022.38 1022.85 1023.26 1023.70 1024.06 1024.53 1024.98 1025.29 1025.55 1025.90
1008.81 1008.38 1008.57 1008.80 1007.34 1007.10 1006.95 1006.64 1006.63 1006.88 1006.91 1007.25 1007.64 1008.25 1009.04 1009.89 1010.33 1010.85 1011.37 1011.97 1012.48 1013.00 1013.54 1014.29 1015.18 1016.03 1016.91 1017.34 1017.93 1018.54 1019.49 1020.03 1020.77 1021.57 1022.28 1022.79 1023.34 1023.76 1024.06 1024.34 1024.71 1025.12 1025.49 1025.86
1006.47 1006.92 1007.16 1007.08 1006.45 1006.48 1006.47 1006.18 1006.24 1006.65 1006.77 1007.13 1007.43 1007.84 1008.39 1009.18 1009.96 1010.36 1010.93 1011.52 1011.94 1012.55 1013.27 1013.78 1014.54 1015.35 1016.10 1016.81 1017.49 1018.17 1018.90 1019.63 1020.59 1021.45 1022.18 1022.77 1023.19 1023.83 1024.34 1024.52 1024.73 1025.01 1025.18 1025.37
1004.77 1004.93 1005.33 1005.25 1004.45 1004.67 1004.83 1005.15 1005.65 1006.23 1006.42 1006.69 1007.15 1007.70 1008.05 1008.52 1009.17 1009.93 1010.45 1010.72 1011.41 1012.03 1012.70 1013.44 1014.09 1014.81 1015.51 1016.28 1017.09 1017.91 1018.47 1019.13 1020.14 1021.22 1022.00 1022.61 1023.23 1023.86 1024.35 1024.77 1024.97 1024.73 1025.01 1025.21
Wind_Speed
4 3 1 1 1 6 6 4 6 5 2 2 2 5 6 6 10 11 9 9 14 13 14 13 16 18 4 9 7 3 8 9 6 3 2 4 6 6 3 6 7 6 7 7
6 2 4 3 5 4 4 4 5 6 8 2 5 4 5 7 4 4 6 9 11 16 15 15 15 16 13 6 8 9 8 8 7 7 5 4 5 3 1 4 6 6 7 7
4 2 2 2 5 5 3 2 3 4 8 4 4 1 2 1 3 5 6 6 7 9 14 13 13 14 12 2 8 7 10 10 8 8 4 5 4 4 3 4 3 2 7 6
3 3 0 4 2 3 3 3 2 6 6 2 2 4 3 5 5 4 5 7 11 11 13 9 11 13 11 10 3 8 12 7 8 7 4 6 4 6 2 3 5 6 7 7
5 2 2 2 2 2 8 7 8 4 3 3 7 5 5 5 9 11 11 13 12 12 14 14 13 11 13 9 5 8 8 10 13 16 11 4 6 7 5 6 10 8 6 8
7 2 3 2 6 3 8 6 6 4 2 2 5 4 5 4 6 7 11 12 13 12 13 14 11 7 6 7 10 9 10 8 8 8 12 18 12 6 6 4 6 4 5 5
1 3 2 2 3 6 10 7 5 6 5 5 3 4 6 5 4 4 11 11 11 12 13 14 13 5 11 10 12 9 10 9 6 7 7 13 18 10 6 4 4 4 3 3
3 3 5 1 3 2 3 5 6 5 0 6 6 3 5 4 5 2 8 10 11 13 13 16 13 11 12 9 9 10 11 10 7 8 9 9 14 7 5 7 6 5 4 5
2 2 1 2 1 3 3 4 4 4 2 3 3 3 1 4 3 7 10 11 11 11 12 11 14 13 11 10 11 10 12 12 12 11 10 11 10 8 7 7 6 4 5 6
2 1 4 2 0 2 3 5 2 3 3 4 3 2 4 4 5 5 8 11 10 10 11 12 12 12 11 13 13 14 14 14 13 12 10 10 10 8 7 6 6 6 6 6
2 4 5 4 3 4 1 1 1 3 5 3 2 5 4 3 3 3 6 8 9 9 10 9 9 10 11 12 13 13 13 13 11 10 10 11 9 8 8 7 7 6 8 7
2 4 2 2 2 2 2 2 3 6 4 2 4 6 5 7 6 2 7 5 6 8 9 9 9 9 11 11 11 11 11 12 10 10 10 10 10 8 9 7 7 8 7 7
4 2 2 5 5 3 1 4 4 3 3 4 4 6 5 7 7 3 6 5 5 8 9 7 8 9 10 10 10 10 10 10 10 11 11 11 10 7 8 7 6 7 7 7
4 2 6 7 5 4 3 4 5 6 3 3 5 5 6 7 9 7 4 4 6 7 9 9 8 8 8 9 9 10 10 9 10 11 10 8 7 7 6 8 7 8 7 7
5 4 4 6 7 4 5 6 6 7 7 4 6 2 9 12 12 11 8 5 6 7 9 9 8 7 9 7 6 7 7 7 8 10 10 7 8 8 8 8 8 9 9 8
3 3 2 5 6 7 7 9 9 8 7 7 7 8 6 7 7 8 10 9 7 7 8 8 8 7 6 7 7 7 7 7 7 8 8 7 7 7 6 6 7 8 7 7
7 4 2 5 5 4 7 9 11 7 5 9 7 8 7 8 12 12 11 12 11 10 11 11 10 10 9 8 7 8 8 7 7 8 7 6 6 7 6 7 7 7 7 7
7 5 4 4 4 3 7 2 6 9 9 8 4 10 11 11 9 10 10 11 11 11 11 11 11 9 8 7 8 8 8 8 8 7 7 7 7 6 6 7 6 6 5 6
4 5 3 4 3 6 2 4 5 6 7 9 10 9 8 6 6 4 10 12 14 11 9 9 9 9 7 9 8 8 8 8 8 7 7 6 7 7 7 7 7 4 5 4
4 5 4 3 4 8 6 4 6 5 6 6 11 10 10 8 5 7 10 12 11 12 9 11 9 8 9 8 8 9 8 8 8 7 7 7 7 7 7 6 6 3 3 4
4 1 6 3 4 8 8 7 5 4 9 5 10 10 10 10 9 5 8 8 13 13 13 12 11 11 9 8 8 8 8 8 7 8 8 7 7 8 7 6 3 4 5 5
10 9 6 4 3 10 8 5 9 9 3 6 6 9 11 6 7 5 14 12 14 13 13 14 11 10 8 8 9 8 8 8 9 8 8 7 7 6 6 7 4 4 6 6
6 11 11 12 11 6 16 6 8 7 6 6 7 6 11 9 7 7 7 12 14 15 13 13 13 10 8 8 9 9 8 9 9 8 8 7 7 6 6 6 5 4 5 4
4 7 5 6 8 8 15 4 7 7 7 7 7 8 10 10 9 9 8 8 11 12 14 13 12 12 11 8 8 10 11 10 10 8 7 6 7 6 5 4 4 4 4 4
7 12 8 3 5 3 6 8 9 7 6 7 7 9 11 10 9 10 8 9 12 12 11 13 14 13 13 10 9 13 12 12 10 8 7 6 5 6 5 4 4 4 2 4
7 9 10 10 8 7 9 14 11 11 11 10 9 6 8 10 10 9 9 10 10 12 12 12 12 13 13 11 11 12 12 13 12 9 6 6 5 5 5 5 3 5 7 8
Wind_Direction
201 91 238 240 250 243 266 264 297 310 261 41 266 114 85 58 43 16 349 337 328 329 328 336 346 349 30 125 111 121 135 118 99 45 83 132 144 135 136 134 151 136 125 128
11 226 201 233 282 301 1 37 323 303 316 201 270 136 115 86 74 8 330 325 325 326 335 336 340 337 347 147 148 149 116 140 112 117 21 331 130 99 122 106 113 126 124 137
165 228 231 345 357 4 2 133 315 273 313 294 140 165 48 77 71 355 315 297 310 315 320 326 333 327 338 197 154 132 119 116 117 83 62 18 32 89 85 81 109 106 115 117
251 206 71 346 261 61 316 245 320 299 8 261 97 279 13 313 285 285 339 334 336 330 319 318 327 314 321 326 134 113 108 108 116 114 152 141 267 144 100 97 83 58 53 74
261 94 12 291 241 331 246 275 269 216 244 360 324 72 256 302 325 332 346 344 341 333 327 322 311 311 315 299 143 98 113 112 106 108 89 114 112 66 103 95 93 67 57 71
222 147 172 234 289 231 267 336 23 77 93 19 271 122 290 324 275 321 350 352 342 336 338 324 314 295 293 87 113 115 116 107 135 114 102 99 94 107 103 116 105 122 106 71
105 194 183 205 344 335 25 37 355 15 14 227 353 44 242 305 26 2 353 353 351 0 354 349 346 100 85 82 116 114 117 114 108 139 117 113 129 148 128 98 101 123 111 99
146 269 170 302 138 229 292 110 143 184 269 274 341 357 302 68 116 100 16 14 15 13 3 2 6 54 80 93 100 125 105 94 89 76 66 71 75 69 65 98 113 139 152 143
68 276 315 160 168 119 326 63 156 111 319 37 248 16 3 65 90 46 21 26 22 18 6 9 20 36 60 71 78 88 89 88 81 90 89 83 84 98 107 121 122 116 153 152
205 349 209 195 56 288 116 170 84 16 49 329 316 198 254 3 5 33 32 26 20 19 21 20 26 36 51 61 69 70 74 74 73 71 74 85 99 102 114 109 122 140 112 126
190 110 301 79 202 192 68 0 219 133 134 174 294 272 193 121 134 33 85 57 40 33 20 23 33 46 57 61 61 66 70 74 69 70 76 74 73 76 70 75 77 74 84 109
218 142 222 250 327 29 113 147 123 116 267 226 163 272 151 131 155 117 93 79 81 69 53 39 36 55 63 66 69 73 72 76 78 82 84 82 84 84 85 78 87 91 97 100
179 225 66 348 344 344 256 211 155 133 91 232 133 262 177 125 134 141 109 113 114 104 94 76 60 67 69 79 83 84 84 90 90 89 87 87 83 84 85 81 81 99 107 112
88 215 181 185 188 184 213 190 185 146 134 257 216 172 185 172 153 147 153 134 122 112 109 107 96 91 107 94 81 88 93 95 99 94 88 81 78 77 78 91 96 93 94 92
126 212 219 246 240 224 215 230 217 199 200 181 218 174 204 190 172 166 163 169 148 143 126 123 117 99 103 104 102 102 91 92 98 97 96 95 83 79 81 80 82 75 70 69
177 247 272 288 262 221 243 233 224 218 215 238 250 280 226 159 139 144 166 165 160 149 144 143 132 120 117 120 117 111 104 104 99 100 99 94 89 89 91 85 78 79 79 76
154 170 110 260 21 323 299 223 198 197 200 194 210 218 153 157 166 171 175 170 169 164 157 152 153 149 149 151 142 134 132 121 108 108 105 106 107 100 93 88 89 88 87 88
156 155 127 242 3 241 247 83 160 202 211 206 161 165 177 177 188 173 174 166 171 170 164 160 157 156 160 153 144 137 133 130 128 127 129 124 112 106 94 85 87 84 87 98
111 133 150 150 207 285 286 215 189 178 248 193 171 179 187 173 123 209 185 171 171 170 170 162 160 155 155 152 150 135 131 129 125 129 127 122 118 114 110 106 105 112 103 91
86 87 123 151 167 214 235 185 128 84 281 204 162 173 156 135 163 235 193 171 164 164 160 159 158 147 146 161 144 136 142 134 134 135 135 127 123 118 116 121 102 99 108 101
135 120 174 203 227 282 233 167 117 117 239 172 163 167 158 182 198 205 169 169 167 165 160 157 156 161 166 159 143 144 143 145 148 131 123 117 121 123 129 116 100 106 83 80
158 146 179 164 185 270 154 80 163 208 171 165 152 169 179 174 185 209 181 166 163 163 159 161 159 166 170 159 147 150 151 156 138 128 123 126 132 127 126 123 120 109 109 102
180 181 173 177 206 223 186 175 205 170 154 183 161 166 166 160 184 175 164 161 172 169 168 167 164 163 174 165 155 148 164 148 135 127 135 136 125 121 129 122 122 109 102 104
236 180 182 108 231 202 201 242 178 186 174 177 171 162 159 173 177 181 173 169 173 174 172 168 162 169 179 173 158 157 158 148 140 138 141 137 128 127 120 113 110 109 109 101
190 151 173 242 282 118 241 215 184 182 168 170 168 175 178 162 187 182 181 180 182 178 175 174 177 177 180 173 158 161 157 149 145 145 147 144 144 134 123 112 130 121 130 140
180 167 174 210 190 168 211 207 184 180 190 187 174 177 195 174 180 179 192 186 179 180 177 182 180 176 178 171 159 162 160 154 150 153 153 159 145 145 143 134 95 126 137 124